Year,Month,Day,Hour,Minute,Value (Times are PST for temperature in C)
2015,03,06,00,00,3.20
2015,03,06,00,01,3.20
2015,03,06,00,02,3.20
2015,03,06,00,03,3.20
2015,03,06,00,04,3.20
2015,03,06,00,05,3.10
2015,03,06,00,06,3.10
2015,03,06,00,07,3.20
2015,03,06,00,08,3.20
2015,03,06,00,09,3.20
2015,03,06,00,10,3.20
2015,03,06,00,11,3.20
2015,03,06,00,12,3.20
2015,03,06,00,13,3.20
2015,03,06,00,14,3.20
2015,03,06,00,15,3.20
2015,03,06,00,16,3.20
2015,03,06,00,17,3.20
2015,03,06,00,18,3.20
2015,03,06,00,19,3.20
2015,03,06,00,20,3.20
2015,03,06,00,21,3.20
2015,03,06,00,22,3.20
2015,03,06,00,23,3.20
2015,03,06,00,24,3.30
2015,03,06,00,25,3.30
2015,03,06,00,26,3.30
2015,03,06,00,27,3.30
2015,03,06,00,28,3.30
2015,03,06,00,29,3.30
2015,03,06,00,30,3.30
2015,03,06,00,31,3.40
2015,03,06,00,32,3.40
2015,03,06,00,33,3.40
2015,03,06,00,34,3.40
2015,03,06,00,35,3.50
2015,03,06,00,36,3.50
2015,03,06,00,37,3.50
2015,03,06,00,38,3.50
2015,03,06,00,39,3.60
2015,03,06,00,40,3.60
2015,03,06,00,41,3.60
2015,03,06,00,42,3.60
2015,03,06,00,43,3.60
2015,03,06,00,44,3.60
2015,03,06,00,45,3.60
2015,03,06,00,46,3.60
2015,03,06,00,47,3.60
2015,03,06,00,48,3.60
2015,03,06,00,49,3.60
2015,03,06,00,50,3.60
2015,03,06,00,51,3.60
2015,03,06,00,52,3.60
2015,03,06,00,53,3.60
2015,03,06,00,54,3.70
2015,03,06,00,55,3.70
2015,03,06,00,56,3.70
2015,03,06,00,57,3.60
2015,03,06,00,58,3.60
2015,03,06,00,59,3.60
2015,03,06,01,00,3.60
2015,03,06,01,01,3.70
2015,03,06,01,02,3.70
2015,03,06,01,03,3.60
2015,03,06,01,04,3.60
2015,03,06,01,05,3.60
2015,03,06,01,06,3.60
2015,03,06,01,07,3.60
2015,03,06,01,08,3.60
2015,03,06,01,09,3.60
2015,03,06,01,10,3.60
2015,03,06,01,11,3.60
2015,03,06,01,12,3.60
2015,03,06,01,13,3.60
2015,03,06,01,14,3.60
2015,03,06,01,15,3.60
2015,03,06,01,16,3.60
2015,03,06,01,17,3.60
2015,03,06,01,18,3.60
2015,03,06,01,19,3.50
2015,03,06,01,20,3.50
2015,03,06,01,21,3.50
2015,03,06,01,22,3.50
2015,03,06,01,23,3.40
2015,03,06,01,24,3.40
2015,03,06,01,25,3.40
2015,03,06,01,26,3.40
2015,03,06,01,27,3.40
2015,03,06,01,28,3.30
2015,03,06,01,29,3.30
2015,03,06,01,30,3.30
2015,03,06,01,31,3.30
2015,03,06,01,32,3.30
2015,03,06,01,33,3.30
2015,03,06,01,34,3.30
2015,03,06,01,35,3.30
2015,03,06,01,36,3.30
2015,03,06,01,37,3.30
2015,03,06,01,38,3.30
2015,03,06,01,39,3.20
2015,03,06,01,40,3.20
2015,03,06,01,41,3.20
2015,03,06,01,42,3.30
2015,03,06,01,43,3.30
2015,03,06,01,44,3.30
2015,03,06,01,45,3.30
2015,03,06,01,46,3.30
2015,03,06,01,47,3.30
2015,03,06,01,48,3.30
2015,03,06,01,49,3.40
2015,03,06,01,50,3.40
2015,03,06,01,51,3.40
2015,03,06,01,52,3.40
2015,03,06,01,53,3.40
2015,03,06,01,54,3.30
2015,03,06,01,55,3.30
2015,03,06,01,56,3.30
2015,03,06,01,57,3.30
2015,03,06,01,58,3.30
2015,03,06,01,59,3.30
2015,03,06,02,00,3.30
2015,03,06,02,01,3.40
2015,03,06,02,02,3.40
2015,03,06,02,03,3.40
2015,03,06,02,04,3.40
2015,03,06,02,05,3.40
2015,03,06,02,06,3.40
2015,03,06,02,07,3.30
2015,03,06,02,08,3.30
2015,03,06,02,09,3.30
2015,03,06,02,10,3.30
2015,03,06,02,11,3.30
2015,03,06,02,12,3.30
2015,03,06,02,13,3.30
2015,03,06,02,14,3.30
2015,03,06,02,15,3.30
2015,03,06,02,16,3.30
2015,03,06,02,17,3.30
2015,03,06,02,18,3.30
2015,03,06,02,19,3.30
2015,03,06,02,20,3.30
2015,03,06,02,21,3.30
2015,03,06,02,22,3.30
2015,03,06,02,23,3.20
2015,03,06,02,24,3.20
2015,03,06,02,25,3.20
2015,03,06,02,26,3.20
2015,03,06,02,27,3.20
2015,03,06,02,28,3.20
2015,03,06,02,29,3.20
2015,03,06,02,30,3.20
2015,03,06,02,31,3.10
2015,03,06,02,32,3.20
2015,03,06,02,33,3.20
2015,03,06,02,34,3.20
2015,03,06,02,35,3.10
2015,03,06,02,36,3.10
2015,03,06,02,37,3.10
2015,03,06,02,38,3.10
2015,03,06,02,39,3.10
2015,03,06,02,40,3.10
2015,03,06,02,41,3.10
2015,03,06,02,42,3.10
2015,03,06,02,43,3.10
2015,03,06,02,44,3.10
2015,03,06,02,45,3.10
2015,03,06,02,46,3.10
2015,03,06,02,47,3.10
2015,03,06,02,48,3.10
2015,03,06,02,49,3.10
2015,03,06,02,50,3.10
2015,03,06,02,51,3.10
2015,03,06,02,52,3.10
2015,03,06,02,53,3.10
2015,03,06,02,54,3.10
2015,03,06,02,55,3.10
2015,03,06,02,56,3.10
2015,03,06,02,57,3.10
2015,03,06,02,58,3.10
2015,03,06,02,59,3.10
2015,03,06,03,00,3.10
2015,03,06,03,01,3.10
2015,03,06,03,02,3.10
2015,03,06,03,03,3.10
2015,03,06,03,04,3.10
2015,03,06,03,05,3.10
2015,03,06,03,06,3.10
2015,03,06,03,07,3.10
2015,03,06,03,08,3.00
2015,03,06,03,09,3.00
2015,03,06,03,10,3.00
2015,03,06,03,11,2.90
2015,03,06,03,12,2.90
2015,03,06,03,13,2.90
2015,03,06,03,14,2.90
2015,03,06,03,15,2.90
2015,03,06,03,16,2.90
2015,03,06,03,17,2.90
2015,03,06,03,18,2.90
2015,03,06,03,19,2.90
2015,03,06,03,20,2.80
2015,03,06,03,21,2.80
2015,03,06,03,22,2.80
2015,03,06,03,23,2.80
2015,03,06,03,24,2.80
2015,03,06,03,25,2.80
2015,03,06,03,26,2.80
2015,03,06,03,27,2.80
2015,03,06,03,28,2.80
2015,03,06,03,29,2.80
2015,03,06,03,30,2.80
2015,03,06,03,31,2.80
2015,03,06,03,32,2.80
2015,03,06,03,33,2.80
2015,03,06,03,34,2.80
2015,03,06,03,35,2.80
2015,03,06,03,36,2.70
2015,03,06,03,37,2.70
2015,03,06,03,38,2.70
2015,03,06,03,39,2.70
2015,03,06,03,40,2.70
2015,03,06,03,41,2.70
2015,03,06,03,42,2.60
2015,03,06,03,43,2.60
2015,03,06,03,44,2.60
2015,03,06,03,45,2.60
2015,03,06,03,46,2.60
2015,03,06,03,47,2.60
2015,03,06,03,48,2.60
2015,03,06,03,49,2.60
2015,03,06,03,50,2.60
2015,03,06,03,51,2.60
2015,03,06,03,52,2.60
2015,03,06,03,53,2.60
2015,03,06,03,54,2.60
2015,03,06,03,55,2.60
2015,03,06,03,56,2.60
2015,03,06,03,57,2.60
2015,03,06,03,58,2.60
2015,03,06,03,59,2.60
2015,03,06,04,00,2.60
2015,03,06,04,01,2.60
2015,03,06,04,02,2.60
2015,03,06,04,03,2.70
2015,03,06,04,04,2.70
2015,03,06,04,05,2.70
2015,03,06,04,06,2.60
2015,03,06,04,07,2.60
2015,03,06,04,08,2.60
2015,03,06,04,09,2.60
2015,03,06,04,10,2.60
2015,03,06,04,11,2.60
2015,03,06,04,12,2.60
2015,03,06,04,13,2.60
2015,03,06,04,14,2.70
2015,03,06,04,15,2.70
2015,03,06,04,16,2.70
2015,03,06,04,17,2.70
2015,03,06,04,18,2.70
2015,03,06,04,19,2.70
2015,03,06,04,20,2.70
2015,03,06,04,21,2.70
2015,03,06,04,22,2.70
2015,03,06,04,23,2.70
2015,03,06,04,24,2.60
2015,03,06,04,25,2.60
2015,03,06,04,26,2.60
2015,03,06,04,27,2.60
2015,03,06,04,28,2.60
2015,03,06,04,29,2.50
2015,03,06,04,30,2.50
2015,03,06,04,31,2.50
2015,03,06,04,32,2.50
2015,03,06,04,33,2.50
2015,03,06,04,34,2.60
2015,03,06,04,35,2.60
2015,03,06,04,36,2.60
2015,03,06,04,37,2.50
2015,03,06,04,38,2.50
2015,03,06,04,39,2.50
2015,03,06,04,40,2.40
2015,03,06,04,41,2.40
2015,03,06,04,42,2.40
2015,03,06,04,43,2.40
2015,03,06,04,44,2.40
2015,03,06,04,45,2.40
2015,03,06,04,46,2.40
2015,03,06,04,47,2.40
2015,03,06,04,48,2.50
2015,03,06,04,49,2.50
2015,03,06,04,50,2.50
2015,03,06,04,51,2.50
2015,03,06,04,52,2.50
2015,03,06,04,53,2.60
2015,03,06,04,54,2.60
2015,03,06,04,55,2.70
2015,03,06,04,56,2.70
2015,03,06,04,57,2.70
2015,03,06,04,58,2.70
2015,03,06,04,59,2.80
2015,03,06,05,00,2.80
2015,03,06,05,01,2.80
2015,03,06,05,02,2.80
2015,03,06,05,03,2.80
2015,03,06,05,04,2.80
2015,03,06,05,05,2.80
2015,03,06,05,06,2.90
2015,03,06,05,07,2.90
2015,03,06,05,08,2.90
2015,03,06,05,09,2.90
2015,03,06,05,10,2.90
2015,03,06,05,11,2.90
2015,03,06,05,12,2.90
2015,03,06,05,13,2.90
2015,03,06,05,14,2.90
2015,03,06,05,15,2.90
2015,03,06,05,16,2.90
2015,03,06,05,17,2.90
2015,03,06,05,18,2.90
2015,03,06,05,19,2.90
2015,03,06,05,20,2.90
2015,03,06,05,21,2.90
2015,03,06,05,22,2.90
2015,03,06,05,23,2.90
2015,03,06,05,24,2.90
2015,03,06,05,25,2.90
2015,03,06,05,26,2.90
2015,03,06,05,27,2.90
2015,03,06,05,28,2.90
2015,03,06,05,29,2.90
2015,03,06,05,30,2.90
2015,03,06,05,31,2.90
2015,03,06,05,32,2.90
2015,03,06,05,33,2.90
2015,03,06,05,34,2.90
2015,03,06,05,35,3.00
2015,03,06,05,36,3.00
2015,03,06,05,37,3.00
2015,03,06,05,38,3.00
2015,03,06,05,39,3.00
2015,03,06,05,40,2.90
2015,03,06,05,41,2.90
2015,03,06,05,42,2.90
2015,03,06,05,43,2.90
2015,03,06,05,44,2.90
2015,03,06,05,45,2.90
2015,03,06,05,46,2.90
2015,03,06,05,47,2.90
2015,03,06,05,48,2.90
2015,03,06,05,49,2.90
2015,03,06,05,50,2.90
2015,03,06,05,51,2.90
2015,03,06,05,52,2.90
2015,03,06,05,53,2.90
2015,03,06,05,54,2.90
2015,03,06,05,55,2.90
2015,03,06,05,56,2.90
2015,03,06,05,57,2.90
2015,03,06,05,58,2.90
2015,03,06,05,59,2.90
2015,03,06,06,00,2.90
2015,03,06,06,01,2.90
2015,03,06,06,02,3.00
2015,03,06,06,03,3.00
2015,03,06,06,04,2.90
2015,03,06,06,05,3.00
2015,03,06,06,06,3.00
2015,03,06,06,07,3.00
2015,03,06,06,08,3.00
2015,03,06,06,09,3.00
2015,03,06,06,10,3.00
2015,03,06,06,11,3.00
2015,03,06,06,12,3.00
2015,03,06,06,13,3.00
2015,03,06,06,14,3.00
2015,03,06,06,15,3.00
2015,03,06,06,16,3.00
2015,03,06,06,17,3.00
2015,03,06,06,18,3.00
2015,03,06,06,19,3.00
2015,03,06,06,20,3.00
2015,03,06,06,21,3.00
2015,03,06,06,22,3.00
2015,03,06,06,23,3.00
2015,03,06,06,24,3.00
2015,03,06,06,25,3.00
2015,03,06,06,26,3.10
2015,03,06,06,27,3.10
2015,03,06,06,28,3.10
2015,03,06,06,29,3.10
2015,03,06,06,30,3.10
2015,03,06,06,31,3.10
2015,03,06,06,32,3.10
2015,03,06,06,33,3.10
2015,03,06,06,34,3.10
2015,03,06,06,35,3.10
2015,03,06,06,36,3.20
2015,03,06,06,37,3.20
2015,03,06,06,38,3.20
2015,03,06,06,39,3.20
2015,03,06,06,40,3.20
2015,03,06,06,41,3.20
2015,03,06,06,42,3.20
2015,03,06,06,43,3.20
2015,03,06,06,44,3.20
2015,03,06,06,45,3.20
2015,03,06,06,46,3.20
2015,03,06,06,47,3.20
2015,03,06,06,48,3.20
2015,03,06,06,49,3.20
2015,03,06,06,50,3.20
2015,03,06,06,51,3.20
2015,03,06,06,52,3.20
2015,03,06,06,53,3.10
2015,03,06,06,54,3.10
2015,03,06,06,55,3.10
2015,03,06,06,56,3.10
2015,03,06,06,57,3.20
2015,03,06,06,58,3.20
2015,03,06,06,59,3.20
2015,03,06,07,00,3.20
2015,03,06,07,01,3.20
2015,03,06,07,02,3.20
2015,03,06,07,03,3.20
2015,03,06,07,04,3.30
2015,03,06,07,05,3.30
2015,03,06,07,06,3.30
2015,03,06,07,07,3.30
2015,03,06,07,08,3.30
2015,03,06,07,09,3.30
2015,03,06,07,10,3.30
2015,03,06,07,11,3.40
2015,03,06,07,12,3.40
2015,03,06,07,13,3.40
2015,03,06,07,14,3.40
2015,03,06,07,15,3.40
2015,03,06,07,16,3.40
2015,03,06,07,17,3.40
2015,03,06,07,18,3.40
2015,03,06,07,19,3.40
2015,03,06,07,20,3.40
2015,03,06,07,21,3.40
2015,03,06,07,22,3.40
2015,03,06,07,23,3.50
2015,03,06,07,24,3.50
2015,03,06,07,25,3.50
2015,03,06,07,26,3.50
2015,03,06,07,27,3.50
2015,03,06,07,28,3.50
2015,03,06,07,29,3.50
2015,03,06,07,30,3.50
2015,03,06,07,31,3.50
2015,03,06,07,32,3.50
2015,03,06,07,33,3.50
2015,03,06,07,34,3.50
2015,03,06,07,35,3.60
2015,03,06,07,36,3.60
2015,03,06,07,37,3.60
2015,03,06,07,38,3.60
2015,03,06,07,39,3.60
2015,03,06,07,40,3.60
2015,03,06,07,41,3.60
2015,03,06,07,42,3.60
2015,03,06,07,43,3.70
2015,03,06,07,44,3.70
2015,03,06,07,45,3.70
2015,03,06,07,46,3.70
2015,03,06,07,47,3.70
2015,03,06,07,48,3.70
2015,03,06,07,49,3.70
2015,03,06,07,50,3.70
2015,03,06,07,51,3.70
2015,03,06,07,52,3.70
2015,03,06,07,53,3.70
2015,03,06,07,54,3.70
2015,03,06,07,55,3.70
2015,03,06,07,56,3.80
2015,03,06,07,57,3.80
2015,03,06,07,58,3.80
2015,03,06,07,59,3.80
2015,03,06,08,00,3.80
2015,03,06,08,01,3.90
2015,03,06,08,02,3.90
2015,03,06,08,03,3.90
2015,03,06,08,04,4.00
2015,03,06,08,05,4.00
2015,03,06,08,06,4.00
2015,03,06,08,07,4.10
2015,03,06,08,08,4.10
2015,03,06,08,09,4.10
2015,03,06,08,10,4.10
2015,03,06,08,11,4.10
2015,03,06,08,12,4.10
2015,03,06,08,13,4.10
2015,03,06,08,14,4.10
2015,03,06,08,15,4.10
2015,03,06,08,16,4.10
2015,03,06,08,17,4.20
2015,03,06,08,18,4.20
2015,03,06,08,19,4.20
2015,03,06,08,20,4.30
2015,03,06,08,21,4.30
2015,03,06,08,22,4.30
2015,03,06,08,23,4.30
2015,03,06,08,24,4.40
2015,03,06,08,25,4.40
2015,03,06,08,26,4.40
2015,03,06,08,27,4.40
2015,03,06,08,28,4.40
2015,03,06,08,29,4.50
2015,03,06,08,30,4.50
2015,03,06,08,31,4.50
2015,03,06,08,32,4.50
2015,03,06,08,33,4.60
2015,03,06,08,34,4.60
2015,03,06,08,35,4.60
2015,03,06,08,36,4.60
2015,03,06,08,37,4.70
2015,03,06,08,38,4.70
2015,03,06,08,39,4.70
2015,03,06,08,40,4.70
2015,03,06,08,41,4.70
2015,03,06,08,42,4.80
2015,03,06,08,43,4.80
2015,03,06,08,44,4.80
2015,03,06,08,45,4.80
2015,03,06,08,46,4.90
2015,03,06,08,47,4.90
2015,03,06,08,48,4.90
2015,03,06,08,49,5.00
2015,03,06,08,50,5.00
2015,03,06,08,51,5.10
2015,03,06,08,52,5.10
2015,03,06,08,53,5.10
2015,03,06,08,54,5.20
2015,03,06,08,55,5.20
2015,03,06,08,56,5.20
2015,03,06,08,57,5.20
2015,03,06,08,58,5.20
2015,03,06,08,59,5.20
2015,03,06,09,00,5.30
2015,03,06,09,01,5.30
2015,03,06,09,02,5.30
2015,03,06,09,03,5.30
2015,03,06,09,04,5.30
2015,03,06,09,05,5.30
2015,03,06,09,06,5.40
2015,03,06,09,07,5.40
2015,03,06,09,08,5.50
2015,03,06,09,09,5.50
2015,03,06,09,10,5.60
2015,03,06,09,11,5.60
2015,03,06,09,12,5.60
2015,03,06,09,13,5.60
2015,03,06,09,14,5.70
2015,03,06,09,15,5.70
2015,03,06,09,16,5.70
2015,03,06,09,17,5.70
2015,03,06,09,18,5.70
2015,03,06,09,19,5.60
2015,03,06,09,20,5.60
2015,03,06,09,21,5.50
2015,03,06,09,22,5.50
2015,03,06,09,23,5.50
2015,03,06,09,24,5.60
2015,03,06,09,25,5.60
2015,03,06,09,26,5.60
2015,03,06,09,27,5.60
2015,03,06,09,28,5.60
2015,03,06,09,29,5.70
2015,03,06,09,30,5.70
2015,03,06,09,31,5.80
2015,03,06,09,32,5.80
2015,03,06,09,33,5.80
2015,03,06,09,34,5.80
2015,03,06,09,35,5.90
2015,03,06,09,36,5.90
2015,03,06,09,37,5.90
2015,03,06,09,38,6.00
2015,03,06,09,39,6.00
2015,03,06,09,40,6.10
2015,03,06,09,41,6.20
2015,03,06,09,42,6.20
2015,03,06,09,43,6.30
2015,03,06,09,44,6.30
2015,03,06,09,45,6.30
2015,03,06,09,46,6.30
2015,03,06,09,47,6.30
2015,03,06,09,48,6.30
2015,03,06,09,49,6.40
2015,03,06,09,50,6.40
2015,03,06,09,51,6.50
2015,03,06,09,52,6.50
2015,03,06,09,53,6.60
2015,03,06,09,54,6.60
2015,03,06,09,55,6.70
2015,03,06,09,56,6.70
2015,03,06,09,57,6.70
2015,03,06,09,58,6.70
2015,03,06,09,59,6.80
2015,03,06,10,00,6.80
2015,03,06,10,01,6.80
2015,03,06,10,02,6.90
2015,03,06,10,03,6.90
2015,03,06,10,04,6.90
2015,03,06,10,05,6.90
2015,03,06,10,06,6.90
2015,03,06,10,07,6.90
2015,03,06,10,08,6.90
2015,03,06,10,09,7.00
2015,03,06,10,10,7.00
2015,03,06,10,11,7.10
2015,03,06,10,12,7.10
2015,03,06,10,13,7.10
2015,03,06,10,14,7.20
2015,03,06,10,15,7.20
2015,03,06,10,16,7.30
2015,03,06,10,17,7.40
2015,03,06,10,18,7.40
2015,03,06,10,19,7.50
2015,03,06,10,20,7.60
2015,03,06,10,21,7.60
2015,03,06,10,22,7.70
2015,03,06,10,23,7.80
2015,03,06,10,24,7.80
2015,03,06,10,25,7.80
2015,03,06,10,26,7.90
2015,03,06,10,27,8.00
2015,03,06,10,28,8.10
2015,03,06,10,29,8.10
2015,03,06,10,30,8.20
2015,03,06,10,31,8.30
2015,03,06,10,32,8.30
2015,03,06,10,33,8.40
2015,03,06,10,34,8.50
2015,03,06,10,35,8.50
2015,03,06,10,36,8.60
2015,03,06,10,37,8.60
2015,03,06,10,38,8.70
2015,03,06,10,39,8.80
2015,03,06,10,40,8.80
2015,03,06,10,41,8.80
2015,03,06,10,42,8.80
2015,03,06,10,43,8.80
2015,03,06,10,44,8.70
2015,03,06,10,45,8.70
2015,03,06,10,46,8.60
2015,03,06,10,47,8.60
2015,03,06,10,48,8.50
2015,03,06,10,49,8.50
2015,03,06,10,50,8.40
2015,03,06,10,51,8.40
2015,03,06,10,52,8.40
2015,03,06,10,53,8.40
2015,03,06,10,54,8.40
2015,03,06,10,55,8.50
2015,03,06,10,56,8.50
2015,03,06,10,57,8.50
2015,03,06,10,58,8.60
2015,03,06,10,59,8.60
2015,03,06,11,00,8.70
2015,03,06,11,01,8.70
2015,03,06,11,02,8.80
2015,03,06,11,03,8.80
2015,03,06,11,04,8.90
2015,03,06,11,05,9.00
2015,03,06,11,06,9.00
2015,03,06,11,07,9.10
2015,03,06,11,08,9.10
2015,03,06,11,09,9.10
2015,03,06,11,10,9.10
2015,03,06,11,11,9.10
2015,03,06,11,12,9.10
2015,03,06,11,13,9.10
2015,03,06,11,14,9.10
2015,03,06,11,15,9.10
2015,03,06,11,16,9.10
2015,03,06,11,17,9.10
2015,03,06,11,18,9.10
2015,03,06,11,19,9.10
2015,03,06,11,20,9.10
2015,03,06,11,21,9.00
2015,03,06,11,22,9.00
2015,03,06,11,23,9.00
2015,03,06,11,24,9.00
2015,03,06,11,25,9.10
2015,03,06,11,26,9.10
2015,03,06,11,27,9.10
2015,03,06,11,28,9.10
2015,03,06,11,29,9.10
2015,03,06,11,30,9.20
2015,03,06,11,31,9.20
2015,03,06,11,32,9.30
2015,03,06,11,33,9.30
2015,03,06,11,34,9.30
2015,03,06,11,35,9.30
2015,03,06,11,36,9.20
2015,03,06,11,37,9.20
2015,03,06,11,38,9.20
2015,03,06,11,39,9.30
2015,03,06,11,40,9.30
2015,03,06,11,41,9.30
2015,03,06,11,42,9.40
2015,03,06,11,43,9.40
2015,03,06,11,44,9.50
2015,03,06,11,45,9.50
2015,03,06,11,46,9.60
2015,03,06,11,47,9.70
2015,03,06,11,48,9.70
2015,03,06,11,49,9.80
2015,03,06,11,50,9.90
2015,03,06,11,51,10.00
2015,03,06,11,52,10.00
2015,03,06,11,53,10.00
2015,03,06,11,54,10.00
2015,03,06,11,55,9.90
2015,03,06,11,56,9.90
2015,03,06,11,57,9.90
2015,03,06,11,58,9.90
2015,03,06,11,59,9.80
2015,03,06,12,00,9.80
2015,03,06,12,01,9.80
2015,03,06,12,02,9.80
2015,03,06,12,03,9.70
2015,03,06,12,04,9.70
2015,03,06,12,05,9.60
2015,03,06,12,06,9.60
2015,03,06,12,07,9.60
2015,03,06,12,08,9.60
2015,03,06,12,09,9.50
2015,03,06,12,10,9.50
2015,03,06,12,11,9.50
2015,03,06,12,12,9.50
2015,03,06,12,13,9.40
2015,03,06,12,14,9.40
2015,03,06,12,15,9.40
2015,03,06,12,16,9.30
2015,03,06,12,17,9.30
2015,03,06,12,18,9.20
2015,03,06,12,19,9.20
2015,03,06,12,20,9.20
2015,03,06,12,21,9.20
2015,03,06,12,22,9.20
2015,03,06,12,23,9.30
2015,03,06,12,24,9.30
2015,03,06,12,25,9.40
2015,03,06,12,26,9.40
2015,03,06,12,27,9.40
2015,03,06,12,28,9.40
2015,03,06,12,29,9.40
2015,03,06,12,30,9.40
2015,03,06,12,31,9.40
2015,03,06,12,32,9.40
2015,03,06,12,33,9.40
2015,03,06,12,34,9.50
2015,03,06,12,35,9.50
2015,03,06,12,36,9.60
2015,03,06,12,37,9.60
2015,03,06,12,38,9.60
2015,03,06,12,39,9.70
2015,03,06,12,40,9.80
2015,03,06,12,41,9.80
2015,03,06,12,42,9.90
2015,03,06,12,43,9.90
2015,03,06,12,44,10.00
2015,03,06,12,45,10.10
2015,03,06,12,46,10.10
2015,03,06,12,47,10.10
2015,03,06,12,48,10.10
2015,03,06,12,49,10.10
2015,03,06,12,50,10.10
2015,03,06,12,51,10.10
2015,03,06,12,52,10.10
2015,03,06,12,53,10.20
2015,03,06,12,54,10.20
2015,03,06,12,55,10.20
2015,03,06,12,56,10.20
2015,03,06,12,57,10.20
2015,03,06,12,58,10.20
2015,03,06,12,59,10.20
2015,03,06,13,00,10.20
2015,03,06,13,01,10.20
2015,03,06,13,02,10.20
2015,03,06,13,03,10.10
2015,03,06,13,04,10.10
2015,03,06,13,05,10.10
2015,03,06,13,06,10.10
2015,03,06,13,07,10.00
2015,03,06,13,08,10.00
2015,03,06,13,09,10.00
2015,03,06,13,10,10.00
2015,03,06,13,11,10.00
2015,03,06,13,12,10.10
2015,03,06,13,13,10.10
2015,03,06,13,14,10.10
2015,03,06,13,15,10.10
2015,03,06,13,16,10.20
2015,03,06,13,17,10.20
2015,03,06,13,18,10.30
2015,03,06,13,19,10.30
2015,03,06,13,20,10.40
2015,03,06,13,21,10.40
2015,03,06,13,22,10.50
2015,03,06,13,23,10.60
2015,03,06,13,24,10.60
2015,03,06,13,25,10.70
2015,03,06,13,26,10.70
2015,03,06,13,27,10.80
2015,03,06,13,28,10.80
2015,03,06,13,29,10.80
2015,03,06,13,30,10.80
2015,03,06,13,31,10.80
2015,03,06,13,32,10.80
2015,03,06,13,33,10.90
2015,03,06,13,34,10.90
2015,03,06,13,35,10.90
2015,03,06,13,36,10.90
2015,03,06,13,37,10.90
2015,03,06,13,38,10.90
2015,03,06,13,39,10.90
2015,03,06,13,40,10.90
2015,03,06,13,41,10.90
2015,03,06,13,42,10.80
2015,03,06,13,43,10.80
2015,03,06,13,44,10.80
2015,03,06,13,45,10.80
2015,03,06,13,46,10.80
2015,03,06,13,47,10.80
2015,03,06,13,48,10.90
2015,03,06,13,49,10.90
2015,03,06,13,50,11.00
2015,03,06,13,51,11.10
2015,03,06,13,52,11.20
2015,03,06,13,53,11.20
2015,03,06,13,54,11.20
2015,03,06,13,55,11.30
2015,03,06,13,56,11.30
2015,03,06,13,57,11.40
2015,03,06,13,58,11.40
2015,03,06,13,59,11.40
2015,03,06,14,00,11.30
2015,03,06,14,01,11.40
2015,03,06,14,02,11.40
2015,03,06,14,03,11.40
2015,03,06,14,04,11.50
2015,03,06,14,05,11.50
2015,03,06,14,06,11.50
2015,03,06,14,07,11.40
2015,03,06,14,08,11.40
2015,03,06,14,09,11.40
2015,03,06,14,10,11.40
2015,03,06,14,11,11.30
2015,03,06,14,12,11.30
2015,03,06,14,13,11.30
2015,03,06,14,14,11.30
2015,03,06,14,15,11.30
2015,03,06,14,16,11.30
2015,03,06,14,17,11.30
2015,03,06,14,18,11.30
2015,03,06,14,19,11.30
2015,03,06,14,20,11.30
2015,03,06,14,21,11.30
2015,03,06,14,22,11.20
2015,03,06,14,23,11.30
2015,03,06,14,24,11.30
2015,03,06,14,25,11.30
2015,03,06,14,26,11.30
2015,03,06,14,27,11.40
2015,03,06,14,28,11.50
2015,03,06,14,29,11.50
2015,03,06,14,30,11.60
2015,03,06,14,31,11.60
2015,03,06,14,32,11.60
2015,03,06,14,33,11.60
2015,03,06,14,34,11.70
2015,03,06,14,35,11.70
2015,03,06,14,36,11.60
2015,03,06,14,37,11.60
2015,03,06,14,38,11.50
2015,03,06,14,39,11.40
2015,03,06,14,40,11.40
2015,03,06,14,41,11.40
2015,03,06,14,42,11.40
2015,03,06,14,43,11.40
2015,03,06,14,44,11.40
2015,03,06,14,45,11.40
2015,03,06,14,46,11.50
2015,03,06,14,47,11.50
2015,03,06,14,48,11.60
2015,03,06,14,49,11.60
2015,03,06,14,50,11.60
2015,03,06,14,51,11.60
2015,03,06,14,52,11.60
2015,03,06,14,53,11.60
2015,03,06,14,54,11.60
2015,03,06,14,55,11.50
2015,03,06,14,56,11.40
2015,03,06,14,57,11.40
2015,03,06,14,58,11.30
2015,03,06,14,59,11.40
2015,03,06,15,00,11.40
2015,03,06,15,01,11.40
2015,03,06,15,02,11.40
2015,03,06,15,03,11.40
2015,03,06,15,04,11.30
2015,03,06,15,05,11.30
2015,03,06,15,06,11.30
2015,03,06,15,07,11.30
2015,03,06,15,08,11.30
2015,03,06,15,09,11.30
2015,03,06,15,10,11.30
2015,03,06,15,11,11.30
2015,03,06,15,12,11.30
2015,03,06,15,13,11.30
2015,03,06,15,14,11.30
2015,03,06,15,15,11.30
2015,03,06,15,16,11.30
2015,03,06,15,17,11.30
2015,03,06,15,18,11.30
2015,03,06,15,19,11.30
2015,03,06,15,20,11.30
2015,03,06,15,21,11.30
2015,03,06,15,22,11.30
2015,03,06,15,23,11.30
2015,03,06,15,24,11.30
2015,03,06,15,25,11.30
2015,03,06,15,26,11.30
2015,03,06,15,27,11.30
2015,03,06,15,28,11.30
2015,03,06,15,29,11.30
2015,03,06,15,30,11.30
2015,03,06,15,31,11.40
2015,03,06,15,32,11.40
2015,03,06,15,33,11.40
2015,03,06,15,34,11.50
2015,03,06,15,35,11.50
2015,03,06,15,36,11.60
2015,03,06,15,37,11.60
2015,03,06,15,38,11.60
2015,03,06,15,39,11.60
2015,03,06,15,40,11.60
2015,03,06,15,41,11.60
2015,03,06,15,42,11.50
2015,03,06,15,43,11.50
2015,03,06,15,44,11.50
2015,03,06,15,45,11.40
2015,03,06,15,46,11.40
2015,03,06,15,47,11.40
2015,03,06,15,48,11.40
2015,03,06,15,49,11.40
2015,03,06,15,50,11.40
2015,03,06,15,51,11.40
2015,03,06,15,52,11.40
2015,03,06,15,53,11.40
2015,03,06,15,54,11.40
2015,03,06,15,55,11.30
2015,03,06,15,56,11.30
2015,03,06,15,57,11.30
2015,03,06,15,58,11.20
2015,03,06,15,59,11.20
2015,03,06,16,00,11.10
2015,03,06,16,01,11.10
2015,03,06,16,02,11.00
2015,03,06,16,03,11.00
2015,03,06,16,04,11.00
2015,03,06,16,05,11.00
2015,03,06,16,06,11.00
2015,03,06,16,07,11.00
2015,03,06,16,08,11.00
2015,03,06,16,09,10.90
2015,03,06,16,10,10.90
2015,03,06,16,11,10.90
2015,03,06,16,12,10.90
2015,03,06,16,13,10.80
2015,03,06,16,14,10.80
2015,03,06,16,15,10.80
2015,03,06,16,16,10.70
2015,03,06,16,17,10.70
2015,03,06,16,18,10.70
2015,03,06,16,19,10.70
2015,03,06,16,20,10.60
2015,03,06,16,21,10.60
2015,03,06,16,22,10.60
2015,03,06,16,23,10.60
2015,03,06,16,24,10.60
2015,03,06,16,25,10.70
2015,03,06,16,26,10.70
2015,03,06,16,27,10.70
2015,03,06,16,28,10.70
2015,03,06,16,29,10.70
2015,03,06,16,30,10.70
2015,03,06,16,31,10.70
2015,03,06,16,32,10.70
2015,03,06,16,33,10.60
2015,03,06,16,34,10.60
2015,03,06,16,35,10.60
2015,03,06,16,36,10.60
2015,03,06,16,37,10.60
2015,03,06,16,38,10.60
2015,03,06,16,39,10.60
2015,03,06,16,40,10.60
2015,03,06,16,41,10.60
2015,03,06,16,42,10.60
2015,03,06,16,43,10.60
2015,03,06,16,44,10.60
2015,03,06,16,45,10.60
2015,03,06,16,46,10.60
2015,03,06,16,47,10.60
2015,03,06,16,48,10.60
2015,03,06,16,49,10.60
2015,03,06,16,50,10.70
2015,03,06,16,51,10.70
2015,03,06,16,52,10.70
2015,03,06,16,53,10.70
2015,03,06,16,54,10.70
2015,03,06,16,55,10.70
2015,03,06,16,56,10.70
2015,03,06,16,57,10.70
2015,03,06,16,58,10.70
2015,03,06,16,59,10.80
2015,03,06,17,00,10.80
2015,03,06,17,01,10.70
2015,03,06,17,02,10.70
2015,03,06,17,03,10.70
2015,03,06,17,04,10.70
2015,03,06,17,05,10.70
2015,03,06,17,06,10.60
2015,03,06,17,07,10.60
2015,03,06,17,08,10.60
2015,03,06,17,09,10.60
2015,03,06,17,10,10.60
2015,03,06,17,11,10.60
2015,03,06,17,12,10.50
2015,03,06,17,13,10.50
2015,03,06,17,14,10.50
2015,03,06,17,15,10.50
2015,03,06,17,16,10.40
2015,03,06,17,17,10.40
2015,03,06,17,18,10.40
2015,03,06,17,19,10.40
2015,03,06,17,20,10.30
2015,03,06,17,21,10.30
2015,03,06,17,22,10.30
2015,03,06,17,23,10.30
2015,03,06,17,24,10.20
2015,03,06,17,25,10.20
2015,03,06,17,26,10.10
2015,03,06,17,27,10.10
2015,03,06,17,28,10.00
2015,03,06,17,29,9.90
2015,03,06,17,30,9.80
2015,03,06,17,31,9.80
2015,03,06,17,32,9.70
2015,03,06,17,33,9.60
2015,03,06,17,34,9.60
2015,03,06,17,35,9.50
2015,03,06,17,36,9.50
2015,03,06,17,37,9.40
2015,03,06,17,38,9.40
2015,03,06,17,39,9.40
2015,03,06,17,40,9.30
2015,03,06,17,41,9.30
2015,03,06,17,42,9.30
2015,03,06,17,43,9.20
2015,03,06,17,44,9.10
2015,03,06,17,45,9.10
2015,03,06,17,46,9.00
2015,03,06,17,47,9.00
2015,03,06,17,48,8.90
2015,03,06,17,49,8.90
2015,03,06,17,50,8.80
2015,03,06,17,51,8.80
2015,03,06,17,52,8.80
2015,03,06,17,53,8.70